Flag for Romania Weather past 2 weeks in Iasi, Romania

Now
43 °F

Mostly cloudy.


Feels Like: 43 °F
Forecast: 38 / 59 °F
Wind: 1 mph from South

Location: Iasi Airport

Current Time: Mar 30, 2015 at 2:15:47 AM

Latest Report: Mar 30, 2015 at 1:00 AM


Visibility: 5 mi

Pressure: 29.74 "Hg

Humidity: 100%

Dew point: 43 °F

Location of IasiLocation

Historic Weather in Iasi — Graph

°F

Iasi temperature yesterday

Maximum temperature yesterday: 45 °F (at 12:00 AM)
Minimum temperature yesterday: 41 °F (at 6:00 AM)
Average temperature yesterday: 42 °F

Past Weeks' High & Low Weather Summary

 TemperatureHumidityPressure
High63 °F (Mar 25, 3:30 PM)100% (Mar 15, 4:00 AM)30.72 "Hg (Mar 15, 4:00 AM)
Low30 °F (Mar 24, 3:00 AM)24% (Mar 23, 4:30 PM)29.68 "Hg (Mar 29, 2:00 AM)
Average43 °F73%30.16 "Hg
* Reported Midnight between Mar 14 and Mar 15 — Mar 30 1:00 AM, Iasi, Weather by CustomWeather, © 2015

Note: Actual official high and low records may vary slightly from our data, if they occured in-between our weather recording intervals... More about our weather records

Advertising

Iasi weather history for previous 24 hours

 ConditionsComfort  
Time TempWeatherWind HumidityBarometerVisibility
1:00 AM
Mon, Mar 30
43 °FMostly cloudy.1 mph100%29.74 "Hg5 mi
12:00 AM43 °FOvercast.3 mph100%29.74 "Hg5 mi
11:00 PM
Sun, Mar 29
43 °FPassing clouds.1 mph100%29.77 "Hg5 mi
10:00 PM43 °FPassing clouds.No wind100%29.77 "HgN/A
9:30 PM43 °FPassing clouds.No wind100%29.77 "HgN/A
9:00 PM43 °FPassing clouds.3 mph100%29.77 "HgN/A
8:30 PM43 °FMore clouds than sun.1 mph100%29.74 "HgN/A
7:30 PM43 °FMore clouds than sun.2 mph100%29.74 "HgN/A
7:00 PM43 °FLight rain. More clouds than sun.2 mph100%29.71 "HgN/A
6:30 PM43 °FLight rain. More clouds than sun.5 mph93%29.71 "HgN/A
6:00 PM43 °FLight rain. Broken clouds.5 mph93%29.71 "HgN/A
5:30 PM43 °FLight rain. Partly sunny.5 mph93%29.71 "HgN/A
5:00 PM43 °FLight rain. Broken clouds.6 mph93%29.71 "HgN/A
4:30 PM43 °FLight rain. Broken clouds.6 mph93%29.71 "HgN/A
4:00 PM43 °FLight rain. Broken clouds.6 mph93%29.71 "HgN/A
3:30 PM43 °FLight rain. Broken clouds.7 mph93%29.71 "HgN/A
3:00 PM43 °FLight rain. Broken clouds.7 mph93%29.71 "HgN/A
2:30 PM43 °FLight rain. Broken clouds.6 mph93%29.71 "HgN/A
2:00 PM41 °FLight rain. Broken clouds.8 mph93%29.71 "HgN/A
1:30 PM41 °FLight rain. Partly sunny.8 mph93%29.71 "HgN/A
1:00 PM41 °FLight rain. Broken clouds.8 mph93%29.71 "HgN/A
12:30 PM41 °FLight rain. Broken clouds.9 mph93%29.71 "HgN/A
12:00 PM41 °FLight rain. Cloudy.9 mph93%29.71 "HgN/A
11:30 AM41 °FLight rain. Broken clouds.8 mph93%29.71 "HgN/A
11:00 AM41 °FLight rain. Broken clouds.7 mph93%29.71 "HgN/A
10:30 AM41 °FLight rain. Cloudy.9 mph93%29.71 "HgN/A
10:00 AM41 °FLight rain. Cloudy.10 mph93%29.71 "HgN/A
9:30 AM41 °FLight rain. More clouds than sun.14 mph93%29.71 "HgN/A
9:00 AM41 °FLight rain. Broken clouds.9 mph100%29.68 "Hg4 mi
8:30 AM41 °FLight rain. Broken clouds.10 mph100%29.68 "Hg6 mi
8:00 AM41 °FLight rain. Broken clouds.8 mph100%29.68 "HgN/A
7:30 AM41 °FPassing clouds.9 mph100%29.68 "HgN/A
7:00 AM41 °FLight rain. Mostly cloudy.8 mph100%29.68 "Hg4 mi
6:30 AM41 °FLight rain. Mostly cloudy.10 mph100%29.68 "Hg5 mi
6:00 AM41 °FLight rain. Partly cloudy.12 mph100%29.68 "HgN/A
5:00 AM43 °FLight rain. Mostly cloudy.12 mph93%29.68 "HgN/A
4:00 AM43 °FPassing clouds.13 mph93%29.68 "HgN/A
2:00 AM43 °FLight rain. Partly cloudy.9 mph93%29.68 "HgN/A
Weather by CustomWeather, © 2015

See weather overviewHow to use our weather pages